User: anonymous   Login
Location: El Águila
(10.4167°N, 66.7167°W)
Time: 16:51:27
(UTC+00:00)
Language:

SWIFT - Orbit

View from above orbital plane
View from above orbital plane
View from above satellite
View from above satellite

Ground track
Ground track

The orbit data is extracted from the following two-line orbital elements,

1 28485U 04047A   23027.43006668  .00007337  00000-0  42949-3 0  9990
2 28485  20.5559 176.1817 0009498 263.0196  96.9158 15.08356472997467
Epoch (UTC): 27 January 2023 10:19:17
Eccentricity: 0.0009498
inclination: 20.5559°
perigee height: 534 km
apogee height: 548 km
right ascension of ascending node: 176.1817°
argument of perigee: 263.0196°
revolutions per day: 15.08356472
mean anomaly at epoch: 96.9158°
orbit number at epoch: 99746

The dashed part of the orbit path shows where the satellite is in the earth's shadow,  

DLR